Tracking 30072 objects as of 14-Jan-2025
HD Live streaming from Space Station
objects crossing your sky now

STARLINK-2631

Track STARLINK-2631 now!
10-day predictions
STARLINK-2631 is classified as:


NORAD ID: 48366
Int'l Code: 2021-038P
Perigee: 553.1 km
Apogee: 555.6 km
Inclination: 53.1 °
Period: 95.6 minutes
Semi major axis: 6925 km
RCS: Unknown
Launch date: May 4, 2021
Source: United States (US)
Launch site: AIR FORCE EASTERN TEST RANGE (AFETR)
Your satellite tracking list
Your tracking list is empty




NASA's NSSDC Master Catalog

Two Line Element Set (TLE):
1 48366U 21038P   25014.46393197  .00001443  00000-0  11577-3 0  9991
2 48366  53.0567  73.5979 0001777 104.0705 256.0481 15.06397534204560
Source of the keplerian elements: AFSPC